Regional Weather Roundup
Issued by NWS Goodland, KS

Home | Current Version | Previous Version | Text Only | Print | Product List | Glossary Off
Versions: 1 2 3 4 5 6 7 8 9 10 11 12 13 14 15 16 17 18 19 20 21 22 23 24 25 26 27 28 29 30 31 32 33 34 35 36 37 38 39 40 41 42 43 44 45 46 47 48 49 50

893
ASUS43 KGLD 281008
RWRGLD

GOODLAND FORECAST AREA HOURLY WEATHER ROUNDUP
NATIONAL WEATHER SERVICE GOODLAND KS
400 AM MDT FRI JUL 28 2017

...OFFICIAL OBSERVATIONS...

CITY           SKY/WX    TMP DP  RH WIND       PRES   REMARKS
GOODLAND KS    CLEAR     64  62  93 S9        30.09F
HILL CITY KS   PTCLDY    64  62  93 CALM      30.05F
IMPERIAL NEB   CLOUDY    66  62  87 N13       30.13R
MCCOOK NEB     PTCLDY    67  63  87 CALM      30.07R
AKRON CO       CLOUDY    65  60  84 S17       30.09F
BURLINGTON CO  PTCLDY    63  62  97 SE3       30.13R FOG
LIMON CO       CLOUDY    64  64 100 S9        30.16S
$$

...UNOFFICIAL OBSERVATIONS...

CITY           SKY/WX    TMP DP  RH WIND       PRES   REMARKS
LENORA KS        N/A     64  32  30 MISG        N/A
NORTON KS      CLEAR     63  57  82 E3        30.05
SHARON SPRINGS   N/A     65  63  94 CALM        N/A
TRENTON NEB      N/A     66  32  28 E5          N/A
KIT CARSON CO    N/A     65  62  90 CALM        N/A
YUMA CO        FAIR      61  52  72 S8        30.07S
$$




USA.gov is the U.S. government's official web portal to all federal, state and local government web resources and services.